Location: Gand�
(15.0971°N, 12.6564°W)
Time: 13:21:57
(UTC+00:00)

Cosmos 2058 Rocket - Pass Details

Date: 07 August 2020
Orbit: 610 x 640 km, 82.5° (Epoch: 19 September)

Event Time Altitude Azimuth Distance (km) Brightness Sun altitude
Exits shadow 04:54:46 24° 164° (SSE) 1,338 4.6 -23.3°
Maximum altitude 04:57:21 57° 93° (E) 747 3.6 -22.8°
Drops below altitude 10° 05:01:45 10° 15° (NNE) 2,018 6.2 -21.8°
Sets 05:04:01 0° 11° (N) 2,924 7.0 -21.3°
